| time (UTC) | temp F | wind direction | speed MPH | gust MPH | rain 1hr in | rain 24hr in | rain mn in | humidity % | barometer mb |
| 20260831034802 | 79 | 0 | 0.0 | 2.0 | 0.00 | 0.00 | 0.00 | 52 | 1017.2 |
| 20260831034258 | 79 | 0 | 1.0 | 4.0 | 0.00 | 0.00 | 0.00 | 52 | 1017.4 |
| 20260831033752 | 79 | 0 | 2.0 | 3.0 | 0.00 | 0.00 | 0.00 | 52 | 1017.7 |
| 20260831033251 | 79 | 0 | 2.0 | 8.0 | 0.00 | 0.00 | 0.00 | 52 | 1017.5 |
| 20260831032739 | 79 | 0 | 3.0 | 8.0 | 0.00 | 0.00 | 0.00 | 52 | 1017.4 |
| 20260831032233 | 79 | 0 | 4.0 | 10.0 | 0.00 | 0.00 | 0.00 | 52 | 1017.4 |
| 20260831031728 | 79 | 0 | 3.0 | 15.0 | 0.00 | 0.00 | 0.00 | 51 | 1017.6 |
| 20260831031224 | 81 | 0 | 1.0 | 11.0 | 0.00 | 0.00 | 0.00 | 52 | 1017.6 |
| 20260831030656 | 82 | 0 | 0.0 | 1.0 | 0.00 | 0.00 | 0.00 | 51 | 1017.0 |
| 20260831030412 | 82 | 0 | 0.0 | 1.0 | 0.00 | 0.00 | 0.00 | 51 | 1016.9 |
| 20260831030258 | 82 | 0 | 0.0 | 1.0 | 0.00 | 0.00 | 0.00 | 51 | 1016.9 |
| 20260831025650 | 82 | 0 | 0.0 | 1.0 | 0.00 | 0.00 | 0.00 | 49 | 1017.0 |
| 20260831025121 | 83 | 0 | 0.0 | 1.0 | 0.00 | 0.00 | 0.00 | 49 | 1016.9 |
| 20260831024819 | 83 | 0 | 0.0 | 2.0 | 0.00 | 0.00 | 0.00 | 49 | 1017.0 |
| 20260831024700 | 83 | 0 | 0.0 | 2.0 | 0.00 | 0.00 | 0.00 | 49 | 1017.0 |
| 20260831024301 | 83 | 0 | 0.0 | 2.0 | 0.00 | 0.00 | 0.00 | 46 | 1016.8 |
| 20260831024134 | 83 | 0 | 0.0 | 2.0 | 0.00 | 0.00 | 0.00 | 46 | 1016.8 |
| 20260831023525 | 84 | 0 | 1.0 | 2.0 | 0.00 | 0.00 | 0.00 | 46 | 1016.6 |
| 20260831023101 | 84 | 0 | 0.0 | 4.0 | 0.00 | 0.00 | 0.00 | 45 | 1016.5 |
| 20260831023022 | 84 | 0 | 0.0 | 4.0 | 0.00 | 0.00 | 0.00 | 45 | 1016.6 |
| 20260831022751 | 84 | 0 | 0.0 | 4.0 | 0.00 | 0.00 | 0.00 | 45 | 1016.5 |
| 20260831022327 | 84 | 0 | 2.0 | 6.0 | 0.00 | 0.00 | 0.00 | 45 | 1016.5 |
| 20260831022254 | 84 | 0 | 2.0 | 6.0 | 0.00 | 0.00 | 0.00 | 45 | 1016.5 |
| 20260831021711 | 84 | 0 | 3.0 | 6.0 | 0.00 | 0.00 | 0.00 | 44 | 1016.4 |
| 20260831021554 | 84 | 0 | 3.0 | 6.0 | 0.00 | 0.00 | 0.00 | 44 | 1016.4 |
| 20260831020944 | 84 | 0 | 2.0 | 5.0 | 0.00 | 0.00 | 0.00 | 43 | 1016.4 |
| 20260831020437 | 85 | 0 | 2.0 | 5.0 | 0.00 | 0.00 | 0.00 | 44 | 1016.0 |
| 20260831015934 | 85 | 0 | 1.0 | 3.0 | 0.00 | 0.00 | 0.00 | 45 | 1016.0 |
| 20260831015735 | 85 | 0 | 1.0 | 3.0 | 0.00 | 0.00 | 0.00 | 44 | 1016.1 |
| 20260831015657 | 85 | 0 | 1.0 | 3.0 | 0.00 | 0.00 | 0.00 | 44 | 1016.1 |
| 20260831014905 | 85 | 0 | 1.0 | 3.0 | 0.00 | 0.00 | 0.00 | 44 | 1016.3 |
| 20260831014348 | 86 | 0 | 2.0 | 3.0 | 0.00 | 0.00 | 0.00 | 43 | 1016.3 |
| 20260831013846 | 86 | 0 | 2.0 | 4.0 | 0.00 | 0.00 | 0.00 | 43 | 1016.3 |
| 20260831013607 | 86 | 0 | 2.0 | 4.0 | 0.00 | 0.00 | 0.00 | 42 | 1016.3 |
| 20260831013446 | 86 | 0 | 2.0 | 4.0 | 0.00 | 0.00 | 0.00 | 42 | 1016.3 |
| 20260831012839 | 87 | 0 | 1.0 | 3.0 | 0.00 | 0.00 | 0.00 | 43 | 1016.1 |
| 20260831012529 | 87 | 0 | 0.0 | 3.0 | 0.00 | 0.00 | 0.00 | 43 | 1016.1 |
| 20260831012415 | 87 | 0 | 0.0 | 3.0 | 0.00 | 0.00 | 0.00 | 43 | 1016.1 |
| 20260831011808 | 87 | 0 | 1.0 | 3.0 | 0.00 | 0.00 | 0.00 | 42 | 1016.0 |
| 20260831011245 | 87 | 0 | 1.0 | 3.0 | 0.00 | 0.00 | 0.00 | 41 | 1015.8 |
| 20260831010714 | 88 | 0 | 2.0 | 4.0 | 0.00 | 0.00 | 0.00 | 41 | 1015.7 |
| 20260831010418 | 88 | 0 | 2.0 | 5.0 | 0.00 | 0.00 | 0.00 | 40 | 1015.6 |
| 20260831010256 | 88 | 0 | 2.0 | 5.0 | 0.00 | 0.00 | 0.00 | 40 | 1015.6 |
| 20260831005628 | 89 | 0 | 1.0 | 5.0 | 0.00 | 0.00 | 0.00 | 41 | 1015.6 |
| 20260831005103 | 89 | 0 | 2.0 | 4.0 | 0.00 | 0.00 | 0.00 | 41 | 1015.5 |
| 20260831004601 | 89 | 0 | 2.0 | 4.0 | 0.00 | 0.00 | 0.00 | 40 | 1015.4 |
| 20260831004058 | 89 | 94 | 1.0 | 6.0 | 0.00 | 0.00 | 0.00 | 39 | 1015.4 |
| 20260831003822 | 90 | 94 | 2.0 | 6.0 | 0.00 | 0.00 | 0.00 | 39 | 1015.5 |
| 20260831003709 | 90 | 94 | 2.0 | 6.0 | 0.00 | 0.00 | 0.00 | 39 | 1015.5 |
| 20260831003054 | 90 | 94 | 2.0 | 8.0 | 0.00 | 0.00 | 0.00 | 38 | 1015.6 |
| 20260831002812 | 91 | 94 | 3.0 | 8.0 | 0.00 | 0.00 | 0.00 | 37 | 1015.7 |
| 20260831002657 | 91 | 94 | 3.0 | 8.0 | 0.00 | 0.00 | 0.00 | 37 | 1015.7 |
| 20260831002035 | 91 | 94 | 3.0 | 8.0 | 0.00 | 0.00 | 0.00 | 37 | 1015.5 |
| 20260831001519 | 91 | 92 | 3.0 | 8.0 | 0.00 | 0.00 | 0.00 | 36 | 1015.5 |
| 20260831001012 | 91 | 113 | 2.0 | 8.0 | 0.00 | 0.00 | 0.00 | 36 | 1015.5 |
| 20260831000746 | 91 | 111 | 2.0 | 8.0 | 0.00 | 0.00 | 0.00 | 35 | 1015.6 |
| 20260831000617 | 91 | 111 | 2.0 | 8.0 | 0.00 | 0.00 | 0.00 | 35 | 1015.6 |
| 20260831000106 | 92 | 95 | 4.0 | 10.0 | 0.00 | 0.00 | 0.00 | 34 | 1015.6 |
| 20260831000015 | 92 | 93 | 3.0 | 10.0 | 0.00 | 0.00 | 0.00 | 34 | 1015.6 |
| 20260830235800 | 92 | 96 | 4.0 | 10.0 | 0.00 | 0.00 | 0.00 | 33 | 1015.5 |
| 20260830235715 | 92 | 95 | 4.0 | 10.0 | 0.00 | 0.00 | 0.00 | 34 | 1015.6 |
| 20260830235108 | 92 | 96 | 4.0 | 10.0 | 0.00 | 0.00 | 0.00 | 33 | 1015.5 |
| 20260830234506 | 93 | 103 | 4.0 | 10.0 | 0.00 | 0.00 | 0.00 | 33 | 1015.5 |
| 20260830233950 | 93 | 115 | 4.0 | 8.0 | 0.00 | 0.00 | 0.00 | 32 | 1015.5 |
| 20260830233430 | 94 | 115 | 3.0 | 9.0 | 0.00 | 0.00 | 0.00 | 32 | 1015.5 |
| 20260830232912 | 94 | 109 | 3.0 | 10.0 | 0.00 | 0.00 | 0.00 | 32 | 1015.5 |
| 20260830232421 | 94 | 115 | 3.0 | 10.0 | 0.00 | 0.00 | 0.00 | 32 | 1015.4 |
| 20260830231913 | 94 | 109 | 3.0 | 8.0 | 0.00 | 0.00 | 0.00 | 32 | 1015.4 |
| 20260830231408 | 94 | 110 | 3.0 | 9.0 | 0.00 | 0.00 | 0.00 | 31 | 1015.4 |
| 20260830230843 | 94 | 82 | 4.0 | 9.0 | 0.00 | 0.00 | 0.00 | 32 | 1015.3 |
| 20260830230319 | 95 | 99 | 4.0 | 10.0 | 0.00 | 0.00 | 0.00 | 30 | 1015.3 |
| 20260830225810 | 95 | 103 | 4.0 | 10.0 | 0.00 | 0.00 | 0.00 | 31 | 1015.4 |
| 20260830225312 | 95 | 118 | 3.0 | 9.0 | 0.00 | 0.00 | 0.00 | 30 | 1015.3 |
| 20260830224807 | 95 | 107 | 3.0 | 8.0 | 0.00 | 0.00 | 0.00 | 31 | 1015.3 |
| 20260830224251 | 94 | 112 | 2.0 | 8.0 | 0.00 | 0.00 | 0.00 | 31 | 1015.3 |
| 20260830223752 | 94 | 118 | 2.0 | 8.0 | 0.00 | 0.00 | 0.00 | 33 | 1015.3 |
| 20260830223246 | 94 | 119 | 3.0 | 9.0 | 0.00 | 0.00 | 0.00 | 32 | 1015.3 |
| 20260830222747 | 95 | 112 | 3.0 | 9.0 | 0.00 | 0.00 | 0.00 | 31 | 1015.2 |
| 20260830222719 | 95 | 130 | 3.0 | 8.0 | 0.00 | 0.00 | 0.00 | 31 | 1015.3 |
| 20260830222338 | 95 | 130 | 3.0 | 8.0 | 0.00 | 0.00 | 0.00 | 31 | 1015.3 |
| 20260830221708 | 96 | 115 | 2.0 | 8.0 | 0.00 | 0.00 | 0.00 | 30 | 1015.2 |
| 20260830221211 | 97 | 141 | 3.0 | 9.0 | 0.00 | 0.00 | 0.00 | 29 | 1015.2 |
| 20260830220707 | 97 | 105 | 3.0 | 9.0 | 0.00 | 0.00 | 0.00 | 30 | 1015.2 |
| 20260830220204 | 98 | 132 | 2.0 | 5.0 | 0.00 | 0.00 | 0.00 | 28 | 1015.2 |
| 20260830215700 | 98 | 128 | 2.0 | 5.0 | 0.00 | 0.00 | 0.00 | 27 | 1015.2 |
| 20260830215628 | 98 | 127 | 1.0 | 5.0 | 0.00 | 0.00 | 0.00 | 27 | 1015.2 |
| 20260830215239 | 98 | 127 | 1.0 | 5.0 | 0.00 | 0.00 | 0.00 | 27 | 1015.2 |
| 20260830214606 | 98 | 128 | 0.0 | 2.0 | 0.00 | 0.00 | 0.00 | 27 | 1015.3 |
| 20260830214325 | 98 | 128 | 1.0 | 2.0 | 0.00 | 0.00 | 0.00 | 27 | 1015.3 |
| 20260830214206 | 98 | 128 | 1.0 | 2.0 | 0.00 | 0.00 | 0.00 | 27 | 1015.3 |
| 20260830213603 | 99 | 128 | 0.0 | 3.0 | 0.00 | 0.00 | 0.00 | 27 | 1015.4 |
| 20260830213046 | 99 | 128 | 1.0 | 3.0 | 0.00 | 0.00 | 0.00 | 29 | 1015.4 |
| 20260830212811 | 98 | 128 | 1.0 | 5.0 | 0.00 | 0.00 | 0.00 | 29 | 1015.3 |
| 20260830212643 | 98 | 128 | 1.0 | 5.0 | 0.00 | 0.00 | 0.00 | 29 | 1015.3 |
| 20260830212029 | 99 | 128 | 2.0 | 5.0 | 0.00 | 0.00 | 0.00 | 28 | 1015.4 |
| 20260830211738 | 100 | 128 | 2.0 | 6.0 | 0.00 | 0.00 | 0.00 | 26 | 1015.3 |
| 20260830211621 | 100 | 128 | 2.0 | 6.0 | 0.00 | 0.00 | 0.00 | 26 | 1015.3 |
| 20260830210949 | 101 | 155 | 1.0 | 6.0 | 0.00 | 0.00 | 0.00 | 25 | 1015.3 |
| 20260830210449 | 101 | 157 | 1.0 | 6.0 | 0.00 | 0.00 | 0.00 | 26 | 1015.4 |
| 20260830205941 | 101 | 192 | 1.0 | 6.0 | 0.00 | 0.00 | 0.00 | 26 | 1015.4 |
| 20260830205437 | 100 | 124 | 1.0 | 2.0 | 0.00 | 0.00 | 0.00 | 27 | 1015.4 |
| 20260830204921 | 99 | 124 | 1.0 | 6.0 | 0.00 | 0.00 | 0.00 | 28 | 1015.4 |
| 20260830204417 | 98 | 124 | 2.0 | 5.0 | 0.00 | 0.00 | 0.00 | 28 | 1015.4 |
| 20260830203915 | 97 | 124 | 2.0 | 6.0 | 0.00 | 0.00 | 0.00 | 28 | 1015.5 |
| 20260830203411 | 97 | 126 | 2.0 | 5.0 | 0.00 | 0.00 | 0.00 | 28 | 1015.5 |
| 20260830202902 | 97 | 128 | 2.0 | 5.0 | 0.00 | 0.00 | 0.00 | 27 | 1015.6 |
| 20260830202338 | 99 | 128 | 1.0 | 5.0 | 0.00 | 0.00 | 0.00 | 26 | 1015.7 |
| 20260830201812 | 99 | 130 | 1.0 | 7.0 | 0.00 | 0.00 | 0.00 | 28 | 1015.7 |
| 20260830201307 | 98 | 130 | 2.0 | 7.0 | 0.00 | 0.00 | 0.00 | 28 | 1015.8 |
| 20260830200741 | 97 | 126 | 3.0 | 7.0 | 0.00 | 0.00 | 0.00 | 28 | 1015.9 |
| 20260830200216 | 99 | 139 | 2.0 | 7.0 | 0.00 | 0.00 | 0.00 | 28 | 1015.8 |
| 20260830195703 | 99 | 111 | 2.0 | 7.0 | 0.00 | 0.00 | 0.00 | 26 | 1015.8 |
| 20260830195426 | 99 | 98 | 2.0 | 7.0 | 0.00 | 0.00 | 0.00 | 28 | 1015.8 |
| 20260830195309 | 99 | 98 | 2.0 | 7.0 | 0.00 | 0.00 | 0.00 | 28 | 1015.8 |
| 20260830194639 | 100 | 74 | 1.0 | 2.0 | 0.00 | 0.00 | 0.00 | 27 | 1015.9 |
| 20260830194113 | 99 | 74 | 0.0 | 2.0 | 0.00 | 0.00 | 0.00 | 29 | 1015.8 |
| 20260830194059 | 99 | 74 | 1.0 | 4.0 | 0.00 | 0.00 | 0.00 | 29 | 1015.8 |
| 20260830193718 | 99 | 74 | 1.0 | 4.0 | 0.00 | 0.00 | 0.00 | 29 | 1015.8 |
| 20260830193549 | 98 | 73 | 1.0 | 4.0 | 0.00 | 0.00 | 0.00 | 27 | 1015.9 |
| 20260830193156 | 98 | 73 | 1.0 | 4.0 | 0.00 | 0.00 | 0.00 | 27 | 1015.9 |
| 20260830192543 | 97 | 67 | 1.0 | 4.0 | 0.00 | 0.00 | 0.00 | 28 | 1015.9 |
| 20260830192042 | 96 | 67 | 1.0 | 7.0 | 0.00 | 0.00 | 0.00 | 30 | 1016.0 |
| 20260830191515 | 94 | 68 | 1.0 | 7.0 | 0.00 | 0.00 | 0.00 | 31 | 1015.9 |
| 20260830190947 | 94 | 350 | 2.0 | 7.0 | 0.00 | 0.00 | 0.00 | 33 | 1016.0 |
| 20260830190446 | 92 | 355 | 2.0 | 7.0 | 0.00 | 0.00 | 0.00 | 32 | 1016.0 |
| 20260830190144 | 92 | 56 | 2.0 | 5.0 | 0.00 | 0.00 | 0.00 | 33 | 1016.0 |
| 20260830190027 | 92 | 56 | 2.0 | 5.0 | 0.00 | 0.00 | 0.00 | 33 | 1016.0 |
| 20260830185419 | 92 | 57 | 1.0 | 5.0 | 0.00 | 0.00 | 0.00 | 33 | 1016.0 |
| 20260830184917 | 92 | 57 | 1.0 | 4.0 | 0.00 | 0.00 | 0.00 | 33 | 1016.0 |
| 20260830184623 | 91 | 57 | 3.0 | 6.0 | 0.00 | 0.00 | 0.00 | 34 | 1016.3 |
| 20260830184506 | 92 | 57 | 2.0 | 6.0 | 0.00 | 0.00 | 0.00 | 34 | 1016.1 |
| 20260830183952 | 91 | 57 | 3.0 | 6.0 | 0.00 | 0.00 | 0.00 | 34 | 1016.3 |
| 20260830183320 | 92 | 62 | 2.0 | 6.0 | 0.00 | 0.00 | 0.00 | 33 | 1016.3 |
| 20260830182755 | 92 | 24 | 2.0 | 5.0 | 0.00 | 0.00 | 0.00 | 35 | 1016.3 |
| 20260830182226 | 92 | 59 | 1.0 | 5.0 | 0.00 | 0.00 | 0.00 | 35 | 1016.5 |
| 20260830181722 | 92 | 327 | 2.0 | 4.0 | 0.00 | 0.00 | 0.00 | 35 | 1016.5 |
| 20260830181209 | 92 | 323 | 3.0 | 8.0 | 0.00 | 0.00 | 0.00 | 36 | 1016.5 |
| 20260830180938 | 91 | 307 | 3.0 | 8.0 | 0.00 | 0.00 | 0.00 | 37 | 1016.5 |
| 20260830180822 | 91 | 307 | 3.0 | 8.0 | 0.00 | 0.00 | 0.00 | 37 | 1016.5 |
| 20260830180158 | 91 | 27 | 2.0 | 5.0 | 0.00 | 0.00 | 0.00 | 37 | 1016.5 |
| 20260830175640 | 90 | 31 | 2.0 | 8.0 | 0.00 | 0.00 | 0.00 | 39 | 1016.5 |
| 20260830175130 | 90 | 29 | 3.0 | 8.0 | 0.00 | 0.00 | 0.00 | 38 | 1016.6 |
| 20260830174604 | 91 | 350 | 3.0 | 11.0 | 0.00 | 0.00 | 0.00 | 37 | 1016.6 |
| 20260830174039 | 91 | 13 | 3.0 | 11.0 | 0.00 | 0.00 | 0.00 | 38 | 1016.7 |
| 20260830173522 | 91 | 306 | 3.0 | 8.0 | 0.00 | 0.00 | 0.00 | 39 | 1016.6 |
| 20260830173033 | 90 | 270 | 3.0 | 8.0 | 0.00 | 0.00 | 0.00 | 41 | 1016.8 |
| 20260830173014 | 90 | 334 | 3.0 | 8.0 | 0.00 | 0.00 | 0.00 | 41 | 1016.8 |
| 20260830172626 | 90 | 270 | 3.0 | 8.0 | 0.00 | 0.00 | 0.00 | 41 | 1016.8 |
| 20260830172013 | 90 | 325 | 3.0 | 10.0 | 0.00 | 0.00 | 0.00 | 40 | 1016.9 |
| 20260830171513 | 89 | 311 | 3.0 | 10.0 | 0.00 | 0.00 | 0.00 | 40 | 1017.0 |
| 20260830170953 | 89 | 345 | 3.0 | 8.0 | 0.00 | 0.00 | 0.00 | 40 | 1017.1 |
| 20260830170449 | 88 | 90 | 3.0 | 8.0 | 0.00 | 0.00 | 0.00 | 42 | 1017.1 |
| 20260830165924 | 87 | 306 | 3.0 | 8.0 | 0.00 | 0.00 | 0.00 | 43 | 1017.0 |
| 20260830165421 | 87 | 308 | 3.0 | 8.0 | 0.00 | 0.00 | 0.00 | 44 | 1016.9 |
| 20260830164917 | 85 | 309 | 3.0 | 8.0 | 0.00 | 0.00 | 0.00 | 46 | 1016.9 |
| 20260830164348 | 84 | 330 | 2.0 | 8.0 | 0.00 | 0.00 | 0.00 | 47 | 1017.0 |
| 20260830163816 | 83 | 300 | 3.0 | 10.0 | 0.00 | 0.00 | 0.00 | 50 | 1016.9 |
| 20260830163456 | 81 | 0 | 4.0 | 10.0 | 0.00 | 0.00 | 0.00 | 49 | 1017.0 |
| 20260830163349 | 82 | 28 | 4.0 | 10.0 | 0.00 | 0.00 | 0.00 | 48 | 1017.0 |
| 20260830162833 | 81 | 0 | 4.0 | 10.0 | 0.00 | 0.00 | 0.00 | 49 | 1017.0 |
| 20260830162212 | 80 | 0 | 3.0 | 9.0 | 0.00 | 0.00 | 0.00 | 51 | 1016.6 |
| 20260830161646 | 80 | 0 | 3.0 | 9.0 | 0.00 | 0.00 | 0.00 | 51 | 1016.7 |
| 20260830161122 | 80 | 0 | 4.0 | 9.0 | 0.00 | 0.00 | 0.00 | 51 | 1017.0 |
| 20260830160619 | 80 | 0 | 4.0 | 9.0 | 0.00 | 0.00 | 0.00 | 52 | 1017.2 |
| 20260830160109 | 79 | 275 | 3.0 | 8.0 | 0.00 | 0.00 | 0.00 | 54 | 1017.2 |
| 20260830160035 | 78 | 0 | 3.0 | 9.0 | 0.00 | 0.00 | 0.00 | 55 | 1017.4 |
| 20260830155701 | 78 | 0 | 3.0 | 9.0 | 0.00 | 0.00 | 0.00 | 55 | 1017.4 |
| 20260830155320 | 78 | 0 | 4.0 | 9.0 | 0.00 | 0.00 | 0.00 | 55 | 1017.6 |
| 20260830155155 | 78 | 0 | 4.0 | 9.0 | 0.00 | 0.00 | 0.00 | 55 | 1017.6 |
| 20260830154841 | 77 | 0 | 4.0 | 9.0 | 0.00 | 0.00 | 0.00 | 58 | 1017.7 |
| 20260830154026 | 76 | 0 | 4.0 | 10.0 | 0.00 | 0.00 | 0.00 | 59 | 1017.5 |
| 20260830153522 | 76 | 0 | 4.0 | 10.0 | 0.00 | 0.00 | 0.00 | 60 | 1017.4 |
| 20260830153301 | 75 | 0 | 3.0 | 8.0 | 0.00 | 0.00 | 0.00 | 62 | 1017.1 |
| 20260830153138 | 75 | 0 | 3.0 | 8.0 | 0.00 | 0.00 | 0.00 | 62 | 1017.1 |
| 20260830152452 | 74 | 0 | 3.0 | 5.0 | 0.00 | 0.00 | 0.00 | 64 | 1016.6 |
| 20260830151928 | 73 | 0 | 3.0 | 6.0 | 0.00 | 0.00 | 0.00 | 66 | 1016.8 |
| 20260830151405 | 73 | 0 | 4.0 | 10.0 | 0.00 | 0.00 | 0.00 | 66 | 1016.8 |
| 20260830151137 | 73 | 0 | 4.0 | 10.0 | 0.00 | 0.00 | 0.00 | 66 | 1017.4 |
| 20260830151007 | 73 | 0 | 4.0 | 10.0 | 0.00 | 0.00 | 0.00 | 66 | 1017.4 |
| 20260830150346 | 72 | 0 | 4.0 | 8.0 | 0.00 | 0.00 | 0.00 | 68 | 1017.2 |
| 20260830145848 | 72 | 0 | 3.0 | 8.0 | 0.00 | 0.00 | 0.00 | 69 | 1016.9 |
| 20260830145346 | 72 | 0 | 3.0 | 8.0 | 0.00 | 0.00 | 0.00 | 70 | 1016.8 |
| 20260830144836 | 71 | 0 | 2.0 | 6.0 | 0.00 | 0.00 | 0.00 | 70 | 1016.5 |
| 20260830144331 | 71 | 0 | 2.0 | 6.0 | 0.00 | 0.00 | 0.00 | 71 | 1016.3 |
| 20260830143839 | 71 | 0 | 2.0 | 6.0 | 0.00 | 0.00 | 0.00 | 72 | 1016.3 |
| 20260830143525 | 71 | 0 | 3.0 | 9.0 | 0.00 | 0.00 | 0.00 | 73 | 1016.3 |
| 20260830143359 | 71 | 0 | 3.0 | 9.0 | 0.00 | 0.00 | 0.00 | 73 | 1016.3 |
| 20260830142734 | 70 | 0 | 3.0 | 6.0 | 0.00 | 0.00 | 0.00 | 73 | 1016.5 |
| 20260830142218 | 70 | 0 | 3.0 | 8.0 | 0.00 | 0.00 | 0.00 | 74 | 1016.4 |
| 20260830141718 | 70 | 0 | 3.0 | 8.0 | 0.00 | 0.00 | 0.00 | 76 | 1016.5 |
| 20260830141658 | 69 | 0 | 3.0 | 6.0 | 0.00 | 0.00 | 0.00 | 77 | 1016.5 |
| 20260830141307 | 69 | 0 | 3.0 | 6.0 | 0.00 | 0.00 | 0.00 | 77 | 1016.5 |
| 20260830140653 | 69 | 0 | 3.0 | 6.0 | 0.00 | 0.00 | 0.00 | 77 | 1016.4 |
| 20260830140152 | 68 | 0 | 3.0 | 8.0 | 0.00 | 0.00 | 0.00 | 78 | 1016.3 |
| 20260830135625 | 68 | 0 | 3.0 | 8.0 | 0.00 | 0.00 | 0.00 | 80 | 1016.3 |
| 20260830135127 | 67 | 0 | 4.0 | 8.0 | 0.00 | 0.00 | 0.00 | 81 | 1016.3 |
| 20260830134623 | 67 | 0 | 4.0 | 9.0 | 0.00 | 0.00 | 0.00 | 82 | 1016.3 |
| 20260830134328 | 66 | 0 | 3.0 | 9.0 | 0.00 | 0.00 | 0.00 | 83 | 1016.3 |
| 20260830134202 | 66 | 0 | 3.0 | 9.0 | 0.00 | 0.00 | 0.00 | 83 | 1016.3 |
| 20260830133556 | 65 | 0 | 2.0 | 8.0 | 0.00 | 0.00 | 0.00 | 84 | 1016.1 |
| 20260830133030 | 65 | 0 | 2.0 | 5.0 | 0.00 | 0.00 | 0.00 | 85 | 1016.0 |
| 20260830132503 | 64 | 0 | 2.0 | 5.0 | 0.00 | 0.00 | 0.00 | 85 | 1016.1 |
| 20260830131937 | 64 | 0 | 3.0 | 5.0 | 0.00 | 0.00 | 0.00 | 85 | 1016.0 |
| 20260830131650 | 64 | 0 | 3.0 | 5.0 | 0.00 | 0.00 | 0.00 | 86 | 1016.0 |
| 20260830131537 | 64 | 0 | 3.0 | 5.0 | 0.00 | 0.00 | 0.00 | 86 | 1016.0 |
| 20260830130934 | 64 | 0 | 3.0 | 6.0 | 0.00 | 0.00 | 0.00 | 86 | 1015.9 |
| 20260830130428 | 64 | 0 | 3.0 | 5.0 | 0.00 | 0.00 | 0.00 | 86 | 1015.8 |
| 20260830130120 | 64 | 0 | 3.0 | 5.0 | 0.00 | 0.00 | 0.00 | 86 | 1015.6 |
| 20260830130006 | 64 | 0 | 3.0 | 5.0 | 0.00 | 0.00 | 0.00 | 86 | 1015.6 |
| 20260830125636 | 63 | 0 | 3.0 | 6.0 | 0.00 | 0.00 | 0.00 | 86 | 1015.5 |
| 20260830125504 | 63 | 0 | 3.0 | 6.0 | 0.00 | 0.00 | 0.00 | 86 | 1015.5 |
| 20260830124856 | 63 | 0 | 3.0 | 6.0 | 0.00 | 0.00 | 0.00 | 86 | 1015.5 |
| 20260830124353 | 63 | 0 | 2.0 | 5.0 | 0.00 | 0.00 | 0.00 | 86 | 1015.3 |
| 20260830124113 | 63 | 0 | 2.0 | 5.0 | 0.00 | 0.00 | 0.00 | 87 | 1015.3 |
| 20260830123958 | 63 | 0 | 2.0 | 5.0 | 0.00 | 0.00 | 0.00 | 87 | 1015.3 |
| 20260830123352 | 63 | 0 | 2.0 | 5.0 | 0.00 | 0.00 | 0.00 | 87 | 1015.4 |
| 20260830122857 | 63 | 0 | 2.0 | 5.0 | 0.00 | 0.00 | 0.00 | 87 | 1015.5 |
| 20260830122349 | 63 | 0 | 3.0 | 9.0 | 0.00 | 0.00 | 0.00 | 87 | 1015.4 |
| 20260830121840 | 63 | 0 | 3.0 | 9.0 | 0.00 | 0.00 | 0.00 | 87 | 1015.4 |
| 20260830121342 | 63 | 0 | 3.0 | 6.0 | 0.00 | 0.00 | 0.00 | 87 | 1015.4 |
| 20260830120818 | 63 | 0 | 3.0 | 6.0 | 0.00 | 0.00 | 0.00 | 87 | 1015.4 |
| 20260830120312 | 63 | 0 | 3.0 | 6.0 | 0.00 | 0.00 | 0.00 | 86 | 1015.2 |
| 20260830115812 | 63 | 0 | 2.0 | 5.0 | 0.00 | 0.00 | 0.00 | 86 | 1015.0 |
| 20260830115306 | 63 | 0 | 2.0 | 5.0 | 0.00 | 0.00 | 0.00 | 86 | 1014.9 |
| 20260830114811 | 63 | 0 | 2.0 | 5.0 | 0.00 | 0.00 | 0.00 | 86 | 1015.0 |
| 20260830114259 | 63 | 0 | 3.0 | 5.0 | 0.00 | 0.00 | 0.00 | 86 | 1015.2 |
| 20260830113802 | 63 | 0 | 3.0 | 5.0 | 0.00 | 0.00 | 0.00 | 86 | 1015.0 |
| 20260830113258 | 64 | 0 | 2.0 | 5.0 | 0.00 | 0.00 | 0.00 | 85 | 1015.2 |
| 20260830112801 | 64 | 0 | 2.0 | 4.0 | 0.00 | 0.00 | 0.00 | 85 | 1015.2 |
| 20260830112309 | 64 | 0 | 2.0 | 4.0 | 0.00 | 0.00 | 0.00 | 86 | 1015.0 |
| 20260830111748 | 64 | 0 | 2.0 | 4.0 | 0.00 | 0.00 | 0.00 | 86 | 1015.0 |
| 20260830111237 | 64 | 0 | 2.0 | 8.0 | 0.00 | 0.00 | 0.00 | 86 | 1015.0 |
| 20260830110734 | 64 | 0 | 2.0 | 8.0 | 0.00 | 0.00 | 0.00 | 86 | 1015.0 |
| 20260830110244 | 64 | 0 | 3.0 | 8.0 | 0.00 | 0.00 | 0.00 | 86 | 1014.9 |
| 20260830105726 | 64 | 0 | 3.0 | 8.0 | 0.00 | 0.00 | 0.00 | 86 | 1014.9 |
| 20260830105159 | 64 | 0 | 3.0 | 6.0 | 0.00 | 0.00 | 0.00 | 86 | 1014.9 |
| 20260830104647 | 64 | 0 | 2.0 | 4.0 | 0.00 | 0.00 | 0.00 | 86 | 1014.9 |
| 20260830104145 | 64 | 0 | 2.0 | 5.0 | 0.00 | 0.00 | 0.00 | 86 | 1014.9 |
| 20260830103632 | 64 | 0 | 2.0 | 4.0 | 0.00 | 0.00 | 0.00 | 86 | 1014.9 |
| 20260830103118 | 64 | 0 | 1.0 | 4.0 | 0.00 | 0.00 | 0.00 | 85 | 1014.9 |
| 20260830102554 | 64 | 0 | 1.0 | 4.0 | 0.00 | 0.00 | 0.00 | 85 | 1014.7 |
| 20260830102050 | 64 | 0 | 1.0 | 3.0 | 0.00 | 0.00 | 0.00 | 85 | 1014.7 |
| 20260830101547 | 64 | 0 | 1.0 | 3.0 | 0.00 | 0.00 | 0.00 | 85 | 1014.7 |
| 20260830101019 | 64 | 0 | 2.0 | 4.0 | 0.00 | 0.00 | 0.00 | 85 | 1014.6 |
| 20260830100837 | 65 | 0 | 2.0 | 4.0 | 0.00 | 0.00 | 0.00 | 85 | 1014.7 |
| 20260830100800 | 65 | 0 | 2.0 | 4.0 | 0.00 | 0.00 | 0.00 | 85 | 1014.7 |
| 20260830100305 | 65 | 0 | 2.0 | 4.0 | 0.00 | 0.00 | 0.00 | 84 | 1014.8 |
| 20260830095507 | 65 | 0 | 2.0 | 5.0 | 0.00 | 0.00 | 0.00 | 84 | 1014.8 |
| 20260830095001 | 65 | 0 | 2.0 | 5.0 | 0.00 | 0.00 | 0.00 | 84 | 1014.8 |
| 20260830094726 | 65 | 0 | 2.0 | 3.0 | 0.00 | 0.00 | 0.00 | 84 | 1014.9 |
| 20260830094603 | 65 | 0 | 2.0 | 3.0 | 0.00 | 0.00 | 0.00 | 84 | 1014.9 |
| 20260830093933 | 65 | 0 | 2.0 | 4.0 | 0.00 | 0.00 | 0.00 | 83 | 1014.8 |
| 20260830093650 | 65 | 0 | 2.0 | 4.0 | 0.00 | 0.00 | 0.00 | 83 | 1014.7 |
| 20260830093528 | 65 | 0 | 2.0 | 4.0 | 0.00 | 0.00 | 0.00 | 83 | 1014.7 |
| 20260830092922 | 65 | 0 | 2.0 | 6.0 | 0.00 | 0.00 | 0.00 | 83 | 1014.8 |
| 20260830092629 | 65 | 0 | 2.0 | 6.0 | 0.00 | 0.00 | 0.00 | 83 | 1015.2 |
| 20260830092500 | 65 | 0 | 2.0 | 6.0 | 0.00 | 0.00 | 0.00 | 83 | 1015.2 |
| 20260830091852 | 66 | 0 | 2.0 | 5.0 | 0.00 | 0.00 | 0.00 | 82 | 1015.2 |
| 20260830091334 | 66 | 0 | 2.0 | 5.0 | 0.00 | 0.00 | 0.00 | 82 | 1015.3 |
| 20260830090832 | 66 | 0 | 3.0 | 4.0 | 0.00 | 0.00 | 0.00 | 82 | 1015.0 |
| 20260830090318 | 66 | 0 | 3.0 | 5.0 | 0.00 | 0.00 | 0.00 | 81 | 1015.0 |
| 20260830085816 | 66 | 0 | 3.0 | 5.0 | 0.00 | 0.00 | 0.00 | 81 | 1014.9 |
| 20260830085313 | 67 | 0 | 2.0 | 4.0 | 0.00 | 0.00 | 0.00 | 81 | 1014.9 |
| 20260830084816 | 67 | 0 | 2.0 | 5.0 | 0.00 | 0.00 | 0.00 | 80 | 1014.9 |
| 20260830084314 | 67 | 0 | 2.0 | 5.0 | 0.00 | 0.00 | 0.00 | 80 | 1015.3 |
| 20260830083822 | 67 | 0 | 2.0 | 5.0 | 0.00 | 0.00 | 0.00 | 80 | 1015.2 |
| 20260830083313 | 67 | 0 | 2.0 | 5.0 | 0.00 | 0.00 | 0.00 | 79 | 1015.2 |
| 20260830082813 | 67 | 0 | 2.0 | 5.0 | 0.00 | 0.00 | 0.00 | 79 | 1015.3 |
| 20260830082306 | 68 | 0 | 3.0 | 5.0 | 0.00 | 0.00 | 0.00 | 79 | 1015.4 |
| 20260830081958 | 68 | 0 | 3.0 | 5.0 | 0.00 | 0.00 | 0.00 | 78 | 1015.3 |
| 20260830081841 | 68 | 0 | 3.0 | 5.0 | 0.00 | 0.00 | 0.00 | 78 | 1015.3 |
| 20260830081209 | 68 | 0 | 3.0 | 4.0 | 0.00 | 0.00 | 0.00 | 77 | 1015.2 |
| 20260830080657 | 69 | 0 | 2.0 | 4.0 | 0.00 | 0.00 | 0.00 | 75 | 1015.0 |
| 20260830080136 | 69 | 0 | 1.0 | 3.0 | 0.00 | 0.00 | 0.00 | 73 | 1014.9 |
| 20260830075626 | 70 | 0 | 0.0 | 2.0 | 0.00 | 0.00 | 0.00 | 72 | 1014.8 |
| 20260830075127 | 70 | 0 | 0.0 | 0.0 | 0.00 | 0.00 | 0.00 | 71 | 1014.8 |
| 20260830074623 | 71 | 0 | 0.0 | 0.0 | 0.00 | 0.00 | 0.00 | 71 | 1014.8 |
| 20260830074122 | 71 | 0 | 0.0 | 1.0 | 0.00 | 0.00 | 0.00 | 70 | 1014.9 |
| 20260830073622 | 71 | 0 | 0.0 | 1.0 | 0.00 | 0.00 | 0.00 | 70 | 1014.9 |
| 20260830073111 | 71 | 0 | 0.0 | 2.0 | 0.00 | 0.00 | 0.00 | 70 | 1014.9 |
| 20260830072611 | 71 | 0 | 0.0 | 2.0 | 0.00 | 0.00 | 0.00 | 69 | 1015.3 |
| 20260830072053 | 72 | 0 | 0.0 | 3.0 | 0.00 | 0.00 | 0.00 | 69 | 1015.4 |
| 20260830071556 | 72 | 0 | 1.0 | 4.0 | 0.00 | 0.00 | 0.00 | 69 | 1015.4 |
| 20260830071048 | 72 | 0 | 1.0 | 4.0 | 0.00 | 0.00 | 0.00 | 68 | 1015.5 |
| 20260830070537 | 72 | 0 | 1.0 | 5.0 | 0.00 | 0.00 | 0.00 | 68 | 1015.5 |
| 20260830070242 | 72 | 0 | 1.0 | 4.0 | 0.00 | 0.00 | 0.00 | 67 | 1015.6 |
| 20260830070112 | 72 | 0 | 1.0 | 4.0 | 0.00 | 0.00 | 0.00 | 67 | 1015.6 |
| 20260830065508 | 73 | 0 | 3.0 | 9.0 | 0.00 | 0.00 | 0.00 | 67 | 1015.6 |
| 20260830065007 | 73 | 0 | 3.0 | 9.0 | 0.00 | 0.00 | 0.00 | 67 | 1015.6 |
| 20260830064447 | 73 | 0 | 1.0 | 4.0 | 0.00 | 0.00 | 0.00 | 67 | 1015.6 |
| 20260830063925 | 73 | 0 | 1.0 | 5.0 | 0.00 | 0.00 | 0.00 | 66 | 1015.6 |
| 20260830063402 | 74 | 0 | 1.0 | 3.0 | 0.00 | 0.00 | 0.00 | 65 | 1015.7 |
| 20260830062835 | 74 | 0 | 2.0 | 8.0 | 0.00 | 0.00 | 0.00 | 65 | 1015.8 |
| 20260830062329 | 74 | 0 | 2.0 | 8.0 | 0.00 | 0.00 | 0.00 | 64 | 1015.7 |
| 20260830061832 | 74 | 0 | 3.0 | 11.0 | 0.00 | 0.00 | 0.00 | 63 | 1015.8 |
| 20260830061327 | 75 | 0 | 4.0 | 11.0 | 0.00 | 0.00 | 0.00 | 62 | 1015.8 |
| 20260830060832 | 75 | 0 | 3.0 | 10.0 | 0.00 | 0.00 | 0.00 | 62 | 1015.7 |
| 20260830060325 | 76 | 0 | 3.0 | 10.0 | 0.00 | 0.00 | 0.00 | 61 | 1015.7 |
| 20260830055806 | 76 | 0 | 4.0 | 11.0 | 0.00 | 0.00 | 0.00 | 60 | 1015.8 |
| 20260830055246 | 77 | 0 | 4.0 | 11.0 | 0.00 | 0.00 | 0.00 | 58 | 1015.7 |
| 20260830054718 | 77 | 0 | 4.0 | 12.0 | 0.00 | 0.00 | 0.00 | 57 | 1015.7 |
| 20260830054150 | 78 | 0 | 5.0 | 12.0 | 0.00 | 0.00 | 0.00 | 57 | 1015.6 |
| 20260830053624 | 78 | 0 | 5.0 | 13.0 | 0.00 | 0.00 | 0.00 | 57 | 1015.6 |
| 20260830053118 | 78 | 0 | 4.0 | 13.0 | 0.00 | 0.00 | 0.00 | 56 | 1015.5 |
| 20260830052613 | 78 | 0 | 3.0 | 10.0 | 0.00 | 0.00 | 0.00 | 56 | 1015.4 |
| 20260830052454 | 78 | 0 | 5.0 | 18.0 | 0.00 | 0.00 | 0.00 | 55 | 1015.4 |
| 20260830052407 | 78 | 0 | 5.0 | 18.0 | 0.00 | 0.00 | 0.00 | 55 | 1015.4 |
| 20260830051554 | 78 | 0 | 5.0 | 18.0 | 0.00 | 0.00 | 0.00 | 55 | 1015.3 |
| 20260830051307 | 79 | 0 | 2.0 | 5.0 | 0.00 | 0.00 | 0.00 | 55 | 1014.6 |
| 20260830051140 | 79 | 0 | 2.0 | 5.0 | 0.00 | 0.00 | 0.00 | 55 | 1014.6 |
| 20260830050545 | 79 | 0 | 2.0 | 6.0 | 0.00 | 0.00 | 0.00 | 54 | 1013.9 |
| 20260830050251 | 79 | 0 | 2.0 | 6.0 | 0.00 | 0.00 | 0.00 | 54 | 1013.8 |
| 20260830050136 | 79 | 0 | 2.0 | 6.0 | 0.00 | 0.00 | 0.00 | 54 | 1013.8 |
| 20260830045537 | 80 | 0 | 2.0 | 6.0 | 0.00 | 0.00 | 0.00 | 54 | 1013.7 |
| 20260830045032 | 80 | 0 | 1.0 | 5.0 | 0.00 | 0.00 | 0.00 | 53 | 1013.6 |
| 20260830044507 | 80 | 0 | 1.0 | 5.0 | 0.00 | 0.00 | 0.00 | 53 | 1013.4 |
| 20260830043939 | 80 | 0 | 2.0 | 5.0 | 0.00 | 0.00 | 0.00 | 52 | 1013.6 |
| 20260830043436 | 80 | 0 | 1.0 | 5.0 | 0.00 | 0.00 | 0.00 | 52 | 1013.7 |
| 20260830042911 | 81 | 0 | 1.0 | 4.0 | 0.00 | 0.00 | 0.00 | 51 | 1013.8 |
| 20260830042835 | 81 | 0 | 2.0 | 6.0 | 0.00 | 0.00 | 0.00 | 51 | 1013.8 |
| 20260830042500 | 81 | 0 | 2.0 | 6.0 | 0.00 | 0.00 | 0.00 | 51 | 1013.8 |
| 20260830041857 | 81 | 0 | 1.0 | 6.0 | 0.00 | 0.00 | 0.00 | 51 | 1013.6 |
| 20260830041353 | 81 | 0 | 2.0 | 6.0 | 0.00 | 0.00 | 0.00 | 50 | 1013.5 |
| 20260830041108 | 82 | 0 | 2.0 | 6.0 | 0.00 | 0.00 | 0.00 | 50 | 1013.5 |
| 20260830040954 | 82 | 0 | 2.0 | 6.0 | 0.00 | 0.00 | 0.00 | 50 | 1013.5 |
| 20260830040345 | 82 | 0 | 2.0 | 5.0 | 0.00 | 0.00 | 0.00 | 50 | 1013.6 |
| 20260830035821 | 82 | 0 | 2.0 | 5.0 | 0.00 | 0.00 | 0.00 | 50 | 1013.6 |
| 20260830035306 | 82 | 0 | 1.0 | 5.0 | 0.00 | 0.00 | 0.00 | 49 | 1013.6 |